datetime,area
2002-01-01,641.26
2002-01-02,652.97
2002-01-03,652.97
2002-01-04,664.69
2002-01-05,676.4
2002-01-06,676.4
2002-01-07,688.12
2002-01-08,688.12
2002-01-09,698.98
2002-01-10,698.98
2002-01-11,698.98
2002-01-12,709.85
2002-01-13,709.85
2002-01-14,709.85
2002-01-15,720.71
2002-01-16,720.71
2002-01-17,720.71
2002-01-18,731.58
2002-01-19,731.58
2002-01-20,731.58
2002-01-21,742.45
2002-01-22,742.45
2002-01-23,753.31
2002-01-24,753.31
2002-01-25,753.31
2002-01-26,753.31
2002-01-27,764.18
2002-01-28,764.18
2002-01-29,764.18
2002-01-30,775.04
2002-01-31,775.04
2002-02-01,775.04
2002-02-02,775.04
2002-02-03,785.91
2002-02-04,785.91
2002-02-05,785.91
2002-02-06,785.91
2002-02-07,796.77
2002-02-08,796.77
2002-02-09,796.77
2002-02-10,796.77
2002-02-11,800.63
2002-02-12,800.63
2002-02-13,800.63
2002-02-14,800.63
2002-02-15,804.48
2002-02-16,804.48
2002-02-17,804.48
2002-02-18,804.48
2002-02-19,808.33
2002-02-20,808.33
2002-02-21,808.33
2002-02-22,808.33
2002-02-23,808.33
2002-02-24,808.33
2002-02-25,808.33
2002-02-26,808.33
2002-02-27,812.19
2002-02-28,812.19
2002-03-01,812.19
2002-03-02,812.19
2002-03-03,812.19
2002-03-04,812.19
2002-03-05,812.19
2002-03-06,812.19
2002-03-07,816.04
2002-03-08,816.04
2002-03-09,816.04
2002-03-10,816.04
2002-03-11,816.04
2002-03-12,816.04
2002-03-13,816.04
2002-03-14,816.04
2002-03-15,816.04
2002-03-16,819.9
2002-03-17,819.9
2002-03-18,819.9
2002-03-19,819.9
2002-03-20,823.75
2002-03-21,823.75
2002-03-22,823.75
2002-03-23,823.75
2002-03-24,827.61
2002-03-25,827.61
2002-03-26,827.61
2002-03-27,827.61
2002-03-28,827.61
2002-03-29,827.61
2002-03-30,827.61
2002-03-31,831.46
2002-04-01,831.46
2002-04-02,831.46
2002-04-03,831.46
2002-04-04,831.46
2002-04-05,831.46
2002-04-06,835.32
2002-04-07,835.32
2002-04-08,842.54
2002-04-09,827.61
2002-04-10,804.48
2002-04-11,742.45
2002-04-12,652.97
2002-04-13,563.22
2002-04-14,555.47
2002-04-15,563.22
2002-04-16,555.47
2002-04-17,555.47
2002-04-18,555.47
2002-04-19,555.47
2002-04-20,555.47
2002-04-21,555.47
2002-04-22,547.71
2002-04-23,539.96
2002-04-24,539.96
2002-04-25,547.71
2002-04-26,555.47
2002-04-27,563.22
2002-04-28,570.97
2002-04-29,582.69
2002-04-30,594.4
2002-05-01,594.4
2002-05-02,594.4
2002-05-03,606.12
2002-05-04,606.12
2002-05-05,606.12
2002-05-06,617.83
2002-05-07,617.83
2002-05-08,582.69
2002-05-09,582.69
2002-05-10,570.97
2002-05-11,563.22
2002-05-12,547.71
2002-05-13,547.71
2002-05-14,532.21
2002-05-15,532.21
2002-05-16,547.71
2002-05-17,539.96
2002-05-18,539.96
2002-05-19,532.21
2002-05-20,532.21
2002-05-21,532.21
2002-05-22,532.21
2002-05-23,555.47
2002-05-24,555.47
2002-05-25,555.47
2002-05-26,563.22
2002-05-27,570.97
2002-05-28,570.97
2002-05-29,582.69
2002-05-30,594.4
2002-05-31,606.12
2002-06-01,606.12
2002-06-02,617.83
2002-06-03,617.83
2002-06-04,629.54
2002-06-05,629.54
2002-06-06,582.69
2002-06-07,555.47
2002-06-08,555.47
2002-06-09,563.22
2002-06-10,594.4
2002-06-11,594.4
2002-06-12,570.97
2002-06-13,563.22
2002-06-14,563.22
2002-06-15,563.22
2002-06-16,570.97
2002-06-17,594.4
2002-06-18,641.26
2002-06-19,617.83
2002-06-20,617.83
2002-06-21,617.83
2002-06-22,617.83
2002-06-23,617.83
2002-06-24,617.83
2002-06-25,617.83
2002-06-26,606.12
2002-06-27,582.69
2002-06-28,570.97
2002-06-29,582.69
2002-06-30,582.69
2002-07-01,594.4
2002-07-02,594.4
2002-07-03,594.4
2002-07-04,652.97
2002-07-05,775.04
2002-07-06,849.77
2002-07-07,871.44
2002-07-08,871.44
2002-07-09,871.44
2002-07-10,871.44
2002-07-11,871.44
2002-07-12,871.44
2002-07-13,871.44
2002-07-14,871.44
2002-07-15,864.21
2002-07-16,864.21
2002-07-17,831.46
2002-07-18,808.33
2002-07-19,764.18
2002-07-20,720.71
2002-07-21,676.4
2002-07-22,676.4
2002-07-23,676.4
2002-07-24,676.4
2002-07-25,676.4
2002-07-26,629.54
2002-07-27,563.22
2002-07-28,547.71
2002-07-29,539.96
2002-07-30,532.21
2002-07-31,532.21
2002-08-01,532.21
2002-08-02,547.71
2002-08-03,555.47
2002-08-04,555.47
2002-08-05,570.97
2002-08-06,570.97
2002-08-07,570.97
2002-08-08,582.69
2002-08-09,582.69
2002-08-10,582.69
2002-08-11,582.69
2002-08-12,582.69
2002-08-13,594.4
2002-08-14,594.4
2002-08-15,570.97
2002-08-16,555.47
2002-08-17,555.47
2002-08-18,555.47
2002-08-19,570.97
2002-08-20,582.69
2002-08-21,606.12
2002-08-22,606.12
2002-08-23,606.12
2002-08-24,606.12
2002-08-25,617.83
2002-08-26,617.83
2002-08-27,617.83
2002-08-28,617.83
2002-08-29,617.83
2002-08-30,617.83
2002-08-31,629.54
2002-09-01,629.54
2002-09-02,629.54
2002-09-03,570.97
2002-09-04,547.71
2002-09-05,547.71
2002-09-06,547.71
2002-09-07,582.69
2002-09-08,606.12
2002-09-09,617.83
2002-09-10,617.83
2002-09-11,617.83
2002-09-12,629.54
2002-09-13,629.54
2002-09-14,641.26
2002-09-15,652.97
2002-09-16,835.32
2002-09-17,842.54
2002-09-18,842.54
2002-09-19,842.54
2002-09-20,842.54
2002-09-21,835.32
2002-09-22,823.75
2002-09-23,800.63
2002-09-24,731.58
2002-09-25,652.97
2002-09-26,594.4
2002-09-27,570.97
2002-09-28,563.22
2002-09-29,563.22
2002-09-30,594.4
2002-10-01,617.83
2002-10-02,617.83
2002-10-03,617.83
2002-10-04,629.54
2002-10-05,629.54
2002-10-06,629.54
2002-10-07,664.69
2002-10-08,664.69
2002-10-09,629.54
2002-10-10,563.22
2002-10-11,555.47
2002-10-12,555.47
2002-10-13,563.22
2002-10-14,582.69
2002-10-15,582.69
2002-10-16,582.69
2002-10-17,594.4
2002-10-18,617.83
2002-10-19,617.83
2002-10-20,617.83
2002-10-21,617.83
2002-10-22,617.83
2002-10-23,629.54
2002-10-24,641.26
2002-10-25,641.26
2002-10-26,652.97
2002-10-27,698.98
2002-10-28,731.58
2002-10-29,731.58
2002-10-30,742.45
2002-10-31,742.45
2002-11-01,753.31
2002-11-02,753.31
2002-11-03,753.31
2002-11-04,764.18
2002-11-05,764.18
2002-11-06,764.18
2002-11-07,764.18
2002-11-08,764.18
2002-11-09,764.18
2002-11-10,775.04
2002-11-11,775.04
2002-11-12,775.04
2002-11-13,775.04
2002-11-14,775.04
2002-11-15,785.91
2002-11-16,785.91
2002-11-17,785.91
2002-11-18,785.91
2002-11-19,785.91
2002-11-20,785.91
2002-11-21,796.77
2002-11-22,796.77
2002-11-23,796.77
2002-11-24,796.77
2002-11-25,796.77
2002-11-26,796.77
2002-11-27,800.63
2002-11-28,800.63
2002-11-29,800.63
2002-11-30,800.63
2002-12-01,800.63
2002-12-02,800.63
2002-12-03,835.32
2002-12-04,856.99
2002-12-05,831.46
2002-12-06,823.75
2002-12-07,819.9
2002-12-08,812.19
2002-12-09,804.48
2002-12-10,796.77
2002-12-11,775.04
2002-12-12,785.91
2002-12-13,688.12
2002-12-14,555.47
2002-12-15,524.46
2002-12-16,396.38
2002-12-17,93.6
2002-12-18,93.6
2002-12-19,84.06
2002-12-20,74.53
2002-12-21,74.53
2002-12-22,71.39
2002-12-23,71.39
2002-12-24,71.39
2002-12-25,71.39
2002-12-26,71.39
2002-12-27,71.39
2002-12-28,71.39
2002-12-29,71.39
2002-12-30,71.39
2002-12-31,71.39
2003-01-01,71.39
2003-01-02,71.39
2003-01-03,71.39
2003-01-04,71.39
2003-01-05,74.53
2003-01-06,74.53
2003-01-07,40.17
2003-01-08,74.53
2003-01-09,74.53
2003-01-10,68.24
2003-01-11,40.17
2003-01-12,13.85
2003-01-13,13.85
2003-01-14,13.85
2003-01-15,13.85
2003-01-16,68.24
2003-01-17,65.1
2003-01-18,68.24
2003-01-19,71.39
2003-01-20,71.39
2003-01-21,71.39
2003-01-22,65.1
2003-01-23,61.95
2003-01-24,61.95
2003-01-25,65.1
2003-01-26,68.24
2003-01-27,71.39
2003-01-28,46.23
2003-01-29,68.24
2003-01-30,13.85
2003-01-31,65.1
2003-02-01,68.24
2003-02-02,71.39
2003-02-03,74.53
2003-02-04,46.23
2003-02-05,46.23
2003-02-06,46.23
2003-02-07,58.81
2003-02-08,65.1
2003-02-09,68.24
2003-02-10,131.73
2003-02-11,122.2
2003-02-12,112.67
2003-02-13,103.13
2003-02-14,93.6
2003-02-15,122.2
2003-02-16,150.8
2003-02-17,169.87
2003-02-18,169.87
2003-02-19,202.23
2003-02-20,202.23
2003-02-21,266.94
2003-02-22,266.94
2003-02-23,299.3
2003-02-24,299.3
2003-02-25,299.3
2003-02-26,299.3
2003-02-27,331.66
2003-02-28,331.66
2003-03-01,331.66
2003-03-02,331.66
2003-03-03,364.02
2003-03-04,364.02
2003-03-05,364.02
2003-03-06,396.38
2003-03-07,396.38
2003-03-08,396.38
2003-03-09,396.38
2003-03-10,428.73
2003-03-11,428.73
2003-03-12,428.73
2003-03-13,428.73
2003-03-14,461.09
2003-03-15,461.09
2003-03-16,461.09
2003-03-17,461.09
2003-03-18,493.45
2003-03-19,493.45
2003-03-20,493.45
2003-03-21,493.45
2003-03-22,493.45
2003-03-23,501.2
2003-03-24,501.2
2003-03-25,501.2
2003-03-26,508.95
2003-03-27,524.46
2003-03-28,570.97
2003-03-29,582.69
2003-03-30,582.69
2003-03-31,582.69
2003-04-01,570.97
2003-04-02,547.71
2003-04-03,532.21
2003-04-04,539.96
2003-04-05,539.96
2003-04-06,555.47
2003-04-07,563.22
2003-04-08,555.47
2003-04-09,570.97
2003-04-10,570.97
2003-04-11,582.69
2003-04-12,582.69
2003-04-13,594.4
2003-04-14,606.12
2003-04-15,594.4
2003-04-16,582.69
2003-04-17,582.69
2003-04-18,570.97
2003-04-19,582.69
2003-04-20,594.4
2003-04-21,594.4
2003-04-22,570.97
2003-04-23,563.22
2003-04-24,555.47
2003-04-25,555.47
2003-04-26,563.22
2003-04-27,582.69
2003-04-28,606.12
2003-04-29,617.83
2003-04-30,606.12
2003-05-01,594.4
2003-05-02,594.4
2003-05-03,594.4
2003-05-04,594.4
2003-05-05,606.12
2003-05-06,606.12
2003-05-07,606.12
2003-05-08,606.12
2003-05-09,606.12
2003-05-10,606.12
2003-05-11,606.12
2003-05-12,582.69
2003-05-13,570.97
2003-05-14,570.97
2003-05-15,570.97
2003-05-16,563.22
2003-05-17,570.97
2003-05-18,570.97
2003-05-19,570.97
2003-05-20,570.97
2003-05-21,563.22
2003-05-22,563.22
2003-05-23,570.97
2003-05-24,582.69
2003-05-25,582.69
2003-05-26,617.83
2003-05-27,641.26
2003-05-28,641.26
2003-05-29,652.97
2003-05-30,652.97
2003-05-31,652.97
2003-06-01,652.97
2003-06-02,652.97
2003-06-03,652.97
2003-06-04,652.97
2003-06-05,652.97
2003-06-06,676.4
2003-06-07,676.4
2003-06-08,676.4
2003-06-09,676.4
2003-06-10,676.4
2003-06-11,676.4
2003-06-12,641.26
2003-06-13,617.83
2003-06-14,606.12
2003-06-15,606.12
2003-06-16,570.97
2003-06-17,570.97
2003-06-18,555.47
2003-06-19,555.47
2003-06-20,563.22
2003-06-21,570.97
2003-06-22,570.97
2003-06-23,582.69
2003-06-24,582.69
2003-06-25,582.69
2003-06-26,582.69
2003-06-27,582.69
2003-06-28,582.69
2003-06-29,594.4
2003-06-30,594.4
2003-07-01,594.4
2003-07-02,594.4
2003-07-03,606.12
2003-07-04,606.12
2003-07-05,606.12
2003-07-06,606.12
2003-07-07,606.12
2003-07-08,606.12
2003-07-09,594.4
2003-07-10,582.69
2003-07-11,582.69
2003-07-12,582.69
2003-07-13,617.83
2003-07-14,617.83
2003-07-15,563.22
2003-07-16,563.22
2003-07-17,563.22
2003-07-18,570.97
2003-07-19,582.69
2003-07-20,594.4
2003-07-21,606.12
2003-07-22,606.12
2003-07-23,606.12
2003-07-24,606.12
2003-07-25,617.83
2003-07-26,617.83
2003-07-27,617.83
2003-07-28,617.83
2003-07-29,617.83
2003-07-30,617.83
2003-07-31,617.83
2003-08-01,629.54
2003-08-02,629.54
2003-08-03,629.54
2003-08-04,629.54
2003-08-05,629.54
2003-08-06,629.54
2003-08-07,629.54
2003-08-08,629.54
2003-08-09,629.54
2003-08-10,629.54
2003-08-11,563.22
2003-08-12,555.47
2003-08-13,563.22
2003-08-14,582.69
2003-08-15,606.12
2003-08-16,617.83
2003-08-17,641.26
2003-08-18,652.97
2003-08-19,676.4
2003-08-20,688.12
2003-08-21,688.12
2003-08-22,698.98
2003-08-23,698.98
2003-08-24,698.98
2003-08-25,698.98
2003-08-26,698.98
2003-08-27,698.98
2003-08-28,698.98
2003-08-29,698.98
2003-08-30,698.98
2003-08-31,698.98
2003-09-01,698.98
2003-09-02,698.98
2003-09-03,698.98
2003-09-04,698.98
2003-09-05,709.85
2003-09-06,709.85
2003-09-07,709.85
2003-09-08,652.97
2003-09-09,594.4
2003-09-10,582.69
2003-09-11,594.4
2003-09-12,594.4
2003-09-13,617.83
2003-09-14,629.54
2003-09-15,652.97
2003-09-16,652.97
2003-09-17,652.97
2003-09-18,652.97
2003-09-19,664.69
2003-09-20,664.69
2003-09-21,664.69
2003-09-22,664.69
2003-09-23,664.69
2003-09-24,664.69
2003-09-25,664.69
2003-09-26,617.83
2003-09-27,582.69
2003-09-28,582.69
2003-09-29,582.69
2003-09-30,570.97
2003-10-01,582.69
2003-10-02,582.69
2003-10-03,582.69
2003-10-04,582.69
2003-10-05,582.69
2003-10-06,594.4
2003-10-07,594.4
2003-10-08,594.4
2003-10-09,606.12
2003-10-10,606.12
2003-10-11,606.12
2003-10-12,617.83
2003-10-13,617.83
2003-10-14,629.54
2003-10-15,629.54
2003-10-16,629.54
2003-10-17,641.26
2003-10-18,641.26
2003-10-19,641.26
2003-10-20,641.26
2003-10-21,641.26
2003-10-22,652.97
2003-10-23,652.97
2003-10-24,594.4
2003-10-25,563.22
2003-10-26,570.97
2003-10-27,606.12
2003-10-28,617.83
2003-10-29,617.83
2003-10-30,617.83
2003-10-31,629.54
2003-11-01,629.54
2003-11-02,629.54
2003-11-03,629.54
2003-11-04,641.26
2003-11-05,641.26
2003-11-06,641.26
2003-11-07,641.26
2003-11-08,652.97
2003-11-09,664.69
2003-11-10,664.69
2003-11-11,676.4
2003-11-12,676.4
2003-11-13,676.4
2003-11-14,688.12
2003-11-15,688.12
2003-11-16,688.12
2003-11-17,698.98
2003-11-18,698.98
2003-11-19,698.98
2003-11-20,753.31
2003-11-21,742.45
2003-11-22,720.71
2003-11-23,709.85
2003-11-24,698.98
2003-11-25,676.4
2003-11-26,555.47
2003-11-27,563.22
2003-11-28,563.22
2003-11-29,563.22
2003-11-30,563.22
2003-12-01,563.22
2003-12-02,570.97
2003-12-03,570.97
2003-12-04,570.97
2003-12-05,582.69
2003-12-06,582.69
2003-12-07,582.69
2003-12-08,594.4
2003-12-09,594.4
2003-12-10,594.4
2003-12-11,606.12
2003-12-12,606.12
2003-12-13,606.12
2003-12-14,617.83
2003-12-15,617.83
2003-12-16,617.83
2003-12-17,629.54
2003-12-18,629.54
2003-12-19,629.54
2003-12-20,641.26
2003-12-21,641.26
2003-12-22,641.26
2003-12-23,652.97
2003-12-24,652.97
2003-12-25,652.97
2003-12-26,664.69
2003-12-27,664.69
2003-12-28,664.69
2003-12-29,676.4
2003-12-30,676.4
2003-12-31,676.4
2004-01-01,676.4
2004-01-02,688.12
2004-01-03,688.12
2004-01-04,688.12
2004-01-05,698.98
2004-01-06,698.98
2004-01-07,698.98
2004-01-08,709.85
2004-01-09,709.85
2004-01-10,709.85
2004-01-11,709.85
2004-01-12,709.85
2004-01-13,709.85
2004-01-14,720.71
2004-01-15,720.71
2004-01-16,720.71
2004-01-17,731.58
2004-01-18,731.58
2004-01-19,731.58
2004-01-20,742.45
2004-01-21,742.45
2004-01-22,742.45
2004-01-23,742.45
2004-01-24,742.45
2004-01-25,753.31
2004-01-26,753.31
2004-01-27,753.31
2004-01-28,764.18
2004-01-29,764.18
2004-01-30,764.18
2004-01-31,764.18
2004-02-01,775.04
2004-02-02,775.04
2004-02-03,775.04
2004-02-04,775.04
2004-02-05,785.91
2004-02-06,785.91
2004-02-07,785.91
2004-02-08,785.91
2004-02-09,785.91
2004-02-10,785.91
2004-02-11,785.91
2004-02-12,796.77
2004-02-13,796.77
2004-02-14,796.77
2004-02-15,796.77
2004-02-16,796.77
2004-02-17,800.63
2004-02-18,800.63
2004-02-19,800.63
2004-02-20,800.63
2004-02-21,800.63
2004-02-22,804.48
2004-02-23,804.48
2004-02-24,804.48
2004-02-25,804.48
2004-02-26,804.48
2004-02-27,804.48
2004-02-28,808.33
2004-02-29,808.33
2004-03-01,808.33
2004-03-02,808.33
2004-03-03,808.33
2004-03-04,816.04
2004-03-05,816.04
2004-03-06,816.04
2004-03-07,816.04
2004-03-08,816.04
2004-03-09,816.04
2004-03-10,819.9
2004-03-11,819.9
2004-03-12,819.9
2004-03-13,823.75
2004-03-14,823.75
2004-03-15,823.75
2004-03-16,823.75
2004-03-17,823.75
2004-03-18,827.61
2004-03-19,827.61
2004-03-20,827.61
2004-03-21,827.61
2004-03-22,827.61
2004-03-23,827.61
2004-03-24,827.61
2004-03-25,831.46
2004-03-26,831.46
2004-03-27,831.46
2004-03-28,831.46
2004-03-29,831.46
2004-03-30,831.46
2004-03-31,831.46
2004-04-01,831.46
2004-04-02,831.46
2004-04-03,885.88
2004-04-04,900.33
2004-04-05,915.87
2004-04-06,900.33
2004-04-07,875.05
2004-04-08,875.05
2004-04-09,875.05
2004-04-10,875.05
2004-04-11,878.66
2004-04-12,878.66
2004-04-13,878.66
2004-04-14,878.66
2004-04-15,878.66
2004-04-16,878.66
2004-04-17,878.66
2004-04-18,878.66
2004-04-19,878.66
2004-04-20,878.66
2004-04-21,878.66
2004-04-22,878.66
2004-04-23,878.66
2004-04-24,878.66
2004-04-25,878.66
2004-04-26,878.66
2004-04-27,842.54
2004-04-28,856.99
2004-04-29,731.58
2004-04-30,617.83
2004-05-01,606.12
2004-05-02,641.26
2004-05-03,652.97
2004-05-04,629.54
2004-05-05,606.12
2004-05-06,617.83
2004-05-07,629.54
2004-05-08,617.83
2004-05-09,617.83
2004-05-10,606.12
2004-05-11,594.4
2004-05-12,617.83
2004-05-13,641.26
2004-05-14,664.69
2004-05-15,664.69
2004-05-16,688.12
2004-05-17,652.97
2004-05-18,582.69
2004-05-19,563.22
2004-05-20,563.22
2004-05-21,582.69
2004-05-22,606.12
2004-05-23,629.54
2004-05-24,652.97
2004-05-25,629.54
2004-05-26,606.12
2004-05-27,570.97
2004-05-28,594.4
2004-05-29,606.12
2004-05-30,617.83
2004-05-31,617.83
2004-06-01,617.83
2004-06-02,629.54
2004-06-03,629.54
2004-06-04,629.54
2004-06-05,629.54
2004-06-06,641.26
2004-06-07,629.54
2004-06-08,617.83
2004-06-09,594.4
2004-06-10,570.97
2004-06-11,570.97
2004-06-12,563.22
2004-06-13,582.69
2004-06-14,582.69
2004-06-15,582.69
2004-06-16,563.22
2004-06-17,563.22
2004-06-18,606.12
2004-06-19,629.54
2004-06-20,629.54
2004-06-21,629.54
2004-06-22,617.83
2004-06-23,629.54
2004-06-24,641.26
2004-06-25,606.12
2004-06-26,688.12
2004-06-27,709.85
2004-06-28,709.85
2004-06-29,709.85
2004-06-30,709.85
2004-07-01,709.85
2004-07-02,709.85
2004-07-03,709.85
2004-07-04,709.85
2004-07-05,720.71
2004-07-06,720.71
2004-07-07,720.71
2004-07-08,641.26
2004-07-09,563.22
2004-07-10,547.71
2004-07-11,532.21
2004-07-12,555.47
2004-07-13,570.97
2004-07-14,582.69
2004-07-15,594.4
2004-07-16,594.4
2004-07-17,594.4
2004-07-18,617.83
2004-07-19,629.54
2004-07-20,629.54
2004-07-21,629.54
2004-07-22,641.26
2004-07-23,629.54
2004-07-24,629.54
2004-07-25,641.26
2004-07-26,907.55
2004-07-27,932.52
2004-07-28,934.18
2004-07-29,931.69
2004-07-30,924.2
2004-07-31,921.7
2004-08-01,919.2
2004-08-02,915.87
2004-08-03,911.71
2004-08-04,907.55
2004-08-05,903.94
2004-08-06,871.44
2004-08-07,835.32
2004-08-08,812.19
2004-08-09,753.31
2004-08-10,652.97
2004-08-11,606.12
2004-08-12,617.83
2004-08-13,753.31
2004-08-14,753.31
2004-08-15,764.18
2004-08-16,775.04
2004-08-17,775.04
2004-08-18,775.04
2004-08-19,775.04
2004-08-20,775.04
2004-08-21,775.04
2004-08-22,775.04
2004-08-23,720.71
2004-08-24,629.54
2004-08-25,594.4
2004-08-26,594.4
2004-08-27,594.4
2004-08-28,594.4
2004-08-29,617.83
2004-08-30,629.54
2004-08-31,617.83
2004-09-01,617.83
2004-09-02,617.83
2004-09-03,629.54
2004-09-04,629.54
2004-09-05,629.54
2004-09-06,641.26
2004-09-07,641.26
2004-09-08,641.26
2004-09-09,641.26
2004-09-10,594.4
2004-09-11,570.97
2004-09-12,570.97
2004-09-13,582.69
2004-09-14,570.97
2004-09-15,563.22
2004-09-16,563.22
2004-09-17,582.69
2004-09-18,582.69
2004-09-19,570.97
2004-09-20,606.12
2004-09-21,582.69
2004-09-22,570.97
2004-09-23,570.97
2004-09-24,563.22
2004-09-25,563.22
2004-09-26,582.69
2004-09-27,617.83
2004-09-28,629.54
2004-09-29,629.54
2004-09-30,641.26
2004-10-01,664.69
2004-10-02,664.69
2004-10-03,664.69
2004-10-04,664.69
2004-10-05,664.69
2004-10-06,698.98
2004-10-07,698.98
2004-10-08,698.98
2004-10-09,698.98
2004-10-10,698.98
2004-10-11,709.85
2004-10-12,709.85
2004-10-13,709.85
2004-10-14,709.85
2004-10-15,720.71
2004-10-16,753.31
2004-10-17,785.91
2004-10-18,812.19
2004-10-19,819.9
2004-10-20,827.61
2004-10-21,842.54
2004-10-22,816.04
2004-10-23,893.1
2004-10-24,907.55
2004-10-25,900.33
2004-10-26,885.88
2004-10-27,885.88
2004-10-28,893.1
2004-10-29,907.55
2004-10-30,924.2
2004-10-31,936.68
2004-11-01,940.84
2004-11-02,893.1
2004-11-03,856.99
2004-11-04,835.32
2004-11-05,808.33
2004-11-06,775.04
2004-11-07,720.71
2004-11-08,720.71
2004-11-09,709.85
2004-11-10,688.12
2004-11-11,676.4
2004-11-12,664.69
2004-11-13,652.97
2004-11-14,664.69
2004-11-15,676.4
2004-11-16,676.4
2004-11-17,652.97
2004-11-18,641.26
2004-11-19,629.54
2004-11-20,617.83
2004-11-21,617.83
2004-11-22,629.54
2004-11-23,629.54
2004-11-24,629.54
2004-11-25,629.54
2004-11-26,629.54
2004-11-27,629.54
2004-11-28,532.21
2004-11-29,516.71
2004-11-30,524.46
2004-12-01,524.46
2004-12-02,532.21
2004-12-03,532.21
2004-12-04,532.21
2004-12-05,539.96
2004-12-06,539.96
2004-12-07,539.96
2004-12-08,547.71
2004-12-09,547.71
2004-12-10,555.47
2004-12-11,555.47
2004-12-12,555.47
2004-12-13,563.22
2004-12-14,563.22
2004-12-15,563.22
2004-12-16,570.97
2004-12-17,570.97
2004-12-18,570.97
2004-12-19,582.69
2004-12-20,582.69
2004-12-21,582.69
2004-12-22,594.4
2004-12-23,594.4
2004-12-24,606.12
2004-12-25,606.12
2004-12-26,617.83
2004-12-27,617.83
2004-12-28,617.83
2004-12-29,629.54
2004-12-30,629.54
2004-12-31,629.54
2005-01-01,629.54
2005-01-02,641.26
2005-01-03,641.26
2005-01-04,641.26
2005-01-05,652.97
2005-01-06,652.97
2005-01-07,652.97
2005-01-08,652.97
2005-01-09,664.69
2005-01-10,664.69
2005-01-11,664.69
2005-01-12,664.69
2005-01-13,676.4
2005-01-14,676.4
2005-01-15,676.4
2005-01-16,688.12
2005-01-17,688.12
2005-01-18,688.12
2005-01-19,698.98
2005-01-20,698.98
2005-01-21,698.98
2005-01-22,698.98
2005-01-23,698.98
2005-01-24,698.98
2005-01-25,709.85
2005-01-26,709.85
2005-01-27,720.71
2005-01-28,731.58
2005-01-29,742.45
2005-01-30,753.31
2005-01-31,764.18
2005-02-01,775.04
2005-02-02,785.91
2005-02-03,796.77
2005-02-04,796.77
2005-02-05,800.63
2005-02-06,808.33
2005-02-07,812.19
2005-02-08,816.04
2005-02-09,819.9
2005-02-10,819.9
2005-02-11,823.75
2005-02-12,827.61
2005-02-13,827.61
2005-02-14,831.46
2005-02-15,842.54
2005-02-16,871.44
2005-02-17,900.33
2005-02-18,928.36
2005-02-19,940.84
2005-02-20,936.68
2005-02-21,932.52
2005-02-22,932.52
2005-02-23,932.52
2005-02-24,932.52
2005-02-25,932.52
2005-02-26,932.52
2005-02-27,925.03
2005-02-28,936.68
2005-03-01,932.52
2005-03-02,932.52
2005-03-03,932.52
2005-03-04,931.69
2005-03-05,928.36
2005-03-06,925.03
2005-03-07,932.52
2005-03-08,936.68
2005-03-09,934.18
2005-03-10,932.52
2005-03-11,933.35
2005-03-12,936.68
2005-03-13,938.34
2005-03-14,938.34
2005-03-15,940.01
2005-03-16,940.01
2005-03-17,924.2
2005-03-18,924.2
2005-03-19,915.87
2005-03-20,915.87
2005-03-21,915.87
2005-03-22,949.16
2005-03-23,885.88
2005-03-24,856.99
2005-03-25,819.9
2005-03-26,775.04
2005-03-27,688.12
2005-03-28,664.69
2005-03-29,652.97
2005-03-30,641.26
2005-03-31,629.54
2005-04-01,617.83
2005-04-02,617.83
2005-04-03,629.54
2005-04-04,617.83
2005-04-05,594.4
2005-04-06,606.12
2005-04-07,606.12
2005-04-08,594.4
2005-04-09,594.4
2005-04-10,606.12
2005-04-11,606.12
2005-04-12,594.4
2005-04-13,582.69
2005-04-14,594.4
2005-04-15,606.12
2005-04-16,606.12
2005-04-17,606.12
2005-04-18,629.54
2005-04-19,629.54
2005-04-20,594.4
2005-04-21,594.4
2005-04-22,594.4
2005-04-23,594.4
2005-04-24,606.12
2005-04-25,606.12
2005-04-26,606.12
2005-04-27,606.12
2005-04-28,563.22
2005-04-29,570.97
2005-04-30,570.97
2005-05-01,582.69
2005-05-02,570.97
2005-05-03,582.69
2005-05-04,594.4
2005-05-05,606.12
2005-05-06,606.12
2005-05-07,617.83
2005-05-08,629.54
2005-05-09,617.83
2005-05-10,570.97
2005-05-11,570.97
2005-05-12,570.97
2005-05-13,570.97
2005-05-14,570.97
2005-05-15,606.12
2005-05-16,606.12
2005-05-17,582.69
2005-05-18,582.69
2005-05-19,582.69
2005-05-20,570.97
2005-05-21,570.97
2005-05-22,570.97
2005-05-23,570.97
2005-05-24,563.22
2005-05-25,555.47
2005-05-26,555.47
2005-05-27,570.97
2005-05-28,606.12
2005-05-29,617.83
2005-05-30,629.54
2005-05-31,629.54
2005-06-01,629.54
2005-06-02,629.54
2005-06-03,629.54
2005-06-04,606.12
2005-06-05,606.12
2005-06-06,594.4
2005-06-07,606.12
2005-06-08,617.83
2005-06-09,629.54
2005-06-10,641.26
2005-06-11,629.54
2005-06-12,617.83
2005-06-13,606.12
2005-06-14,606.12
2005-06-15,594.4
2005-06-16,570.97
2005-06-17,563.22
2005-06-18,563.22
2005-06-19,570.97
2005-06-20,582.69
2005-06-21,582.69
2005-06-22,563.22
2005-06-23,563.22
2005-06-24,570.97
2005-06-25,594.4
2005-06-26,606.12
2005-06-27,617.83
2005-06-28,594.4
2005-06-29,594.4
2005-06-30,606.12
2005-07-01,606.12
2005-07-02,617.83
2005-07-03,617.83
2005-07-04,629.54
2005-07-05,629.54
2005-07-06,594.4
2005-07-07,570.97
2005-07-08,563.22
2005-07-09,582.69
2005-07-10,594.4
2005-07-11,629.54
2005-07-12,641.26
2005-07-13,629.54
2005-07-14,629.54
2005-07-15,617.83
2005-07-16,606.12
2005-07-17,594.4
2005-07-18,594.4
2005-07-19,594.4
2005-07-20,582.69
2005-07-21,570.97
2005-07-22,563.22
2005-07-23,582.69
2005-07-24,594.4
2005-07-25,594.4
2005-07-26,594.4
2005-07-27,617.83
2005-07-28,629.54
2005-07-29,629.54
2005-07-30,617.83
2005-07-31,594.4
2005-08-01,594.4
2005-08-02,594.4
2005-08-03,582.69
2005-08-04,582.69
2005-08-05,582.69
2005-08-06,582.69
2005-08-07,594.4
2005-08-08,606.12
2005-08-09,606.12
2005-08-10,606.12
2005-08-11,594.4
2005-08-12,582.69
2005-08-13,582.69
2005-08-14,629.54
2005-08-15,664.69
2005-08-16,664.69
2005-08-17,676.4
2005-08-18,676.4
2005-08-19,688.12
2005-08-20,688.12
2005-08-21,688.12
2005-08-22,698.98
2005-08-23,698.98
2005-08-24,698.98
2005-08-25,698.98
2005-08-26,698.98
2005-08-27,698.98
2005-08-28,709.85
2005-08-29,709.85
2005-08-30,709.85
2005-08-31,709.85
2005-09-01,709.85
2005-09-02,709.85
2005-09-03,709.85
2005-09-04,709.85